Regional Weather Roundup
Issued by NWS

Home | Current Version | Previous Version | Text Only | Print | Product List | Glossary On
Versions: 1 2 3 4 5 6 7 8 9 10 11 12 13 14 15 16 17 18 19 20 21 22 23 24 25 26 27 28 29 30 31 32 33 34 35 36 37 38 39 40 41 42 43 44 45 46 47 48 49 50
000
ASUS44 KBMX 061010
RWRAL

ALABAMA REGIONAL WEATHER ROUNDUP
NATIONAL WEATHER SERVICE BIRMINGHAM AL
500 AM CDT MON JUL 06 2015

NOTE: "FAIR" INDICATES FEW OR NO CLOUDS BELOW 12,000 FEET
WITH NO SIGNIFICANT WEATHER AND/OR OBSTRUCTIONS TO VISIBILITY.

THE REMARK "TC" DENOTES TEMPERATURE IN DEGREES CELSIUS.

ALZ001>011-014-016>018-020-061100-
NORTH ALABAMA

CITY           SKY/WX    TMP DP  RH WIND       PRES   REMARKS
MUSCLE SHOALS  CLEAR     69  65  86 CALM      30.13R
HUNTSVILLE     PTCLDY    72  68  87 SW3       30.12R
DECATUR        PTCLDY    71  69  93 W5        30.12R
HALEYVILLE     FOG       68  68 100 CALM      30.15S VSB 1/4
GADSDEN        CLOUDY    81  66  61 CALM      30.11R
$$

ALZ012-013-022-023-030>036-040>044-061100-
WEST CENTRAL ALABAMA

CITY           SKY/WX    TMP DP  RH WIND       PRES   REMARKS
TUSCALOOSA     CLEAR     67  66  97 CALM      30.11S
$$

ALZ015-024>027-033>036-040>044-061100-
CENTRAL ALABAMA

CITY           SKY/WX    TMP DP  RH WIND       PRES   REMARKS
BIRMINGHAM     CLOUDY    72  70  93 NW3       30.14R
MONTGOMERY     MOCLDY    70  67  90 SW5       30.13R
SHELBY CO ARPT CLOUDY    71  69  93 CALM      30.12R
MAXWELL AFB    CLOUDY    70  69  96 SW5       30.12R
GREENVILLE     FAIR      66  64  94 W5        30.13S
$$

ALZ019-021-028-029-037-038-045>048-061100-
EAST CENTRAL ALABAMA

CITY           SKY/WX    TMP DP  RH WIND       PRES   REMARKS
ANNISTON       CLOUDY    72  70  93 CALM      30.12R
ALEXANDER CITY CLOUDY    72  68  89 W3        30.13R
AUBURN         MOCLDY    70  64  83 NW3       30.13R
$$

ALZ051>064-061100-
SOUTHWEST ALABAMA

CITY           SKY/WX    TMP DP  RH WIND       PRES   REMARKS
MOBILE         PTCLDY    67  67 100 CALM      30.14R
BROOKLEY FIELD MOCLDY    69  68  96 CALM      30.14R
EVERGREEN      PTCLDY    66  65  96 CALM      30.14R
$$

ALZ049-050-065>069-061100-
SOUTHEAST ALABAMA

CITY           SKY/WX    TMP DP  RH WIND       PRES   REMARKS
DOTHAN         PTCLDY    68  66  93 SW5         N/A
OZARK          PTCLDY    67  66  97 SW3       30.12R
TROY           CLOUDY    67  66  97 CALM      30.13R FOG
EUFAULA        CLOUDY    71  69  93 CALM      30.12R
$$



USA.gov is the U.S. government's official web portal to all federal, state and local government web resources and services.